Погода в Смоленске

Погода в Смоленске : погода сейчас, прогноз погоды и архив. Всё, что Вы хотите узнать о погоде в Смоленске!

Хотите узнать прогноз погоды в Смоленске? Тогда Вам сюда: Погода в Смоленске

Поиск расширенной информации на нашем сайте:

Другие новости

Новости СМИ2

Главная страница сайта

Новости сайта

03.07.2017

Напоминаем, что на нашем специализированном сайте Метеоцентр.Азия вы можете получить высокодетализированные автоматические прогнозы погоды по пунктам России, СНГ и мира в авиационном формате (включающие направление и скорость ветра, видимость, явления погоды, количество и форму облачности, нижнюю и верхнюю границу облачности).

Рекомендуем: белый кот

Погода в Смоленске - сегодня

Время (UTC), дата Ветер
(°,м/с) 
Видим.   Явления Облачность Т
(°С)
Тd
(°С)
f(%) Тe
(°С)
Pmin
(гПа)
dP
(гПа)
Po
(мм)
O2
(г/м3)
Тmin Tmax R s Состояние
почвы
12 15.06.18 090 (В) 10 км    10/8 300 м кучево-дожд., средняя 
[Cb cap|Ac trans]
+16.5 +10.3 67 +18  1016.2  741  280           
18 15.06.18 080 (В) 5{10}  10 км  {ливн. осадки}  10/3 600 м средняя 
[Sc|Ac trans]
+13 +9.4 79 +13  1016.6  -0.2  741  283    +17.2  0.8     
03 16.06.18 090 (В) 10 км    10/8 600 м средняя 
[Sc|Ac trans]
+11.3 +9.7 90 +12  1017.2  741  285  +11.2       
06 16.06.18 100 (В) 4000 м  слаб. дождь  10/10 300 м 
[Ns]
+11.5 +10.4 93 +13  1017.7  0.5  742  285  +11.1      влажная 
09 16.06.18 100 (В) 10 км  {дождь}  8/4 600 м кучево-дожд., верхняя 
[Cb cap|Ci fib]
+17.1 +13.1 77 +23  1016.9  -0.2  742  279           
15 16.06.18 120 (ЮВ) 20000 м    8/3 600 м кучево-дожд., верхняя 
[Cb cap|Ci fib]
+19.9 +12.4 62 +26  1016.6  742  276         
21 16.06.18 110 (В) 10 км    9/0 средняя 
[Ac trans]
+15.2 +10.9 75 +18  1017.7  0.3  742  281           
00 17.06.18 110 (В) 10 км    8/3 600 м кучево-дожд., средняя 
[Cb cap|Ac trans]
+13.9 +9.6 75 +15  1018.2  0.4  742  283           
03 17.06.18 150 (ЮВ) 10 км    10/5 300 м кучево-дожд., средняя 
[Cb cap|Ac trans]
+14.7 +8.3 65 +16  1018.5  0.4  743  282  +13.5         
06 17.06.18 110 (В) 10 км    8/4 300 м кучево-дожд., средняя 
[Cb cap|Ac As]
+17.3 +10.3 63 +20  1018  -0.3  742  279  +13.5        влажная 
09 17.06.18 120 (ЮВ) 20000 м    3/0 средняя 
[Ac cuf]
+22.1 +10 46 +23  1017.3  -0.2  742  275           
12 17.06.18 120 (ЮВ) 20000 м    3/3 1000 м 
[Cu med, cong]
+23.8 +10.3 42 +26  1016.5  -0.6  742  273           
15 17.06.18 130 (ЮВ) 20000 м    8/5 1500 м средняя 
[Cu med, cong|Ac trans]
+23.4 +11.1 46 +26  1015.8  -0.7  741  273           
21 17.06.18 110 (В) 10 км    10/0 средняя, верхняя 
[Ac As|Ci]
+15.8 +11.6 76 +21  1016.8  0.4  741  280           
00 18.06.18 110 (В) 10 км    10/0 средняя 
[Ac und]
+14.7 +10.7 77 +18  1016.7  -0.3  741  281           
03 18.06.18 тихо ()   10 км    8/5 1000 м средняя 
[Cu med, cong|Ac trans]
+15.9 +11.7 76 +20  1016.2  -0.3  741  280  +13.1         
06 18.06.18 200 (Ю) 10 км    8/8 600 м кучево-дожд. 
[Cb cap]
+19.1 +12.8 67 +26  1016.1  0.2  741  277  +13.1        влажная 
09 18.06.18 270 (З) 10 км    8/8 600 м 
[Cu med, cong]
+22.8 +14.2 58 +30  1015.8  0.1  741  273           
12 18.06.18 280 (З) 20000 м    6/3 600 м верхняя 
[Cu med, cong|Ci]
+24.1 +14.3 54 +32  1015.6  0.1  741  272           
15 18.06.18 300 (СЗ) 20000 м    9/0 верхняя 
[Ci]
+23.9 +14.2 55 +32  1015  -0.6  741  272           
21 18.06.18 тихо ()   10 км    9/0 верхняя 
[Ci]
+15.3 +13.7 90 +22  1016  0.4  741  280           
00 19.06.18 300 (СЗ) 10 км    9/0 средняя, верхняя 
[Ac trans|Ci fib]
+14.7 +13.5 93 +22  1015.8  -0.2  741  280           
03 19.06.18 тихо ()   10 км    6/0 средняя, верхняя 
[Ac trans|Ci fib]
+17 +14.6 86 +25  1015.3  -0.2  740  278  +14.3         
06 19.06.18 290 (З) 10 км    9/0 средняя, верхняя 
[Ac cast|Ci sp]
+20.9 +15.2 70 +30  1015.1  0.1  741  274  +14.3        сухая 
09 19.06.18 270 (З) 10 км    8/1 1000 м верхняя 
[Cu med, cong|Ci fib]
+24 +16.1 61 +35  1014.6  -0.2  740  271           
Время (UTC), дата Ветер
(°,м/с) 
Видим.   Явления Облачность Т
(°С)
Тd
(°С)
f(%) Тe
(°С)
Pmin
(гПа)
dP
(гПа)
Po
(мм)
O2
(г/м3)
Тmin Tmax R s Состояние
почвы

Для получения пояснительной информации подведите курсор к названию столбца.

ПОГОДА в Смоленске - архив

Всё, что Вы хотите узнать о погоде в Смоленске - удобно и подробно!

Выберите нужную дату (начиная с 1 января 2015* года) и нажмите кнопку "Найти".
Будут отображены архивные сводки погоды по пункту Смоленск, начиная с указанной даты.


Отображать данные в формате CSV (для использования в таблицах Excel)


Внимание! Наш архив погоды предназначен исключительно для личного некоммерческого использования в познавательных целях. Если Вам необходимы официальные справки о состоянии погоды (для производственных, юридических, коммерческих и т.п. целей), обращайтесь в органы Росгидромета.

*Примечание: данная дата относится к архиву по метеостанциям СССР (Россия, СНГ, Балтия).
Архив по метеостанциям Зарубежной Европы и Азии (кроме Китая) хранится 10 дней, по другим регионам земного шара (Китай, Африка, Америка, Австралия, Океания) - 1 день.

Смоленск - район местоположения метеостанции


Название, широта, долгота, высота метеостанции:
Смоленск 54.8°ш. 32.1°д. 239 м над ур. моря [Российская Федерация]

Дополнительная информация

В oтличие oт бoльшинства пoгoдных сайтoв мы публикуем пoдрoбную метеoинфoрмацию в детальнoм прoфессиoнальнoм фoрмате.

Характеристики температуры и влажнoсти вoздуха измеряются на высoте 2 м в тени вдали oт зданий и деревьев.
Скoрoсть ветра измеряется на высoте 10 м (на урoвне рoста челoвека скoрoсть ветра ниже в 1.5-2 раза). Если метеoстанция нахoдится в гoрoде или в лесу, тo скoрoсть ветра занижена на 2-4 м/с пo сравнению с oткрытым местoм. Скoрoсть ветра над акватoриями крупных рек и oзёр, а также на вершинах хoлмoв на 2-5 м/с выше, чем в oбычных услoвиях.
Атмoсфернoе давление в разных тoчках местнoсти мoжет значительнo oтличаться oт давления на метеoстанции, в зависимoсти oт услoвий рельефа (при пoдъёме на 10 м давление пoнижается примернo на 1 мм рт.ст.).